• Em Portugal
  • Lista de países
  • Para 7 dias
  • Temperatura da água
  • Mapas de satélite
  • Mapa do tempo
  • Widgets de tempo
  • user-avatar
    Iniciar Sessão

    Previsão horária em Parowa

    Hoje, 24 Outubro, Quarta-feira

    Tempo Temperatura Precipitação Vento Pressão Humidade
    00:00 +10°C° 0.8 mm 9 m/s 739 mmHg 81%
    01:00 +8°C° 0.8 mm 9 m/s 739 mmHg 80%
    02:00 +8°C° 0.8 mm 9 m/s 739 mmHg 79%
    03:00 +7°C° 0.8 mm 9 m/s 739 mmHg 78%
    04:00 +7°C° 0.8 mm 8 m/s 739 mmHg 77%
    05:00 +6°C° 0.2 mm 8 m/s 739 mmHg 76%
    06:00 +6°C° 0.2 mm 7 m/s 740 mmHg 75%
    07:00 +5°C° 0.2 mm 7 m/s 741 mmHg 74%
    08:00 +6°C° 0 mm 7 m/s 741 mmHg 69%
    09:00 +6°C° 0 mm 8 m/s 742 mmHg 64%
    10:00 +6°C° 0 mm 8 m/s 743 mmHg 59%
    11:00 +7°C° 0 mm 8 m/s 743 mmHg 57%
    12:00 +7°C° 0 mm 8 m/s 744 mmHg 55%
    13:00 +7°C° 0 mm 8 m/s 744 mmHg 52%
    14:00 +8°C° 0 mm 7 m/s 744 mmHg 53%
    15:00 +8°C° 0 mm 6 m/s 745 mmHg 54%
    16:00 +8°C° 0 mm 5 m/s 745 mmHg 55%
    17:00 +7°C° 0 mm 5 m/s 746 mmHg 59%
    18:00 +6°C° 0 mm 4 m/s 746 mmHg 63%
    19:00 +5°C° 0 mm 4 m/s 747 mmHg 67%
    20:00 +5°C° 0 mm 4 m/s 747 mmHg 70%
    21:00 +4°C° 0 mm 4 m/s 747 mmHg 73%
    22:00 +4°C° 0 mm 3 m/s 747 mmHg 75%
    23:00 +4°C° 0 mm 3 m/s 747 mmHg 77%

    Amanhã, 25 Outubro, Quinta-feira

    Tempo Temperatura Precipitação Vento Pressão Humidade
    00:00 +5°C° 0 mm 4 m/s 747 mmHg 79%
    01:00 +5°C° 0 mm 4 m/s 746 mmHg 81%
    02:00 +6°C° 0.4 mm 4 m/s 746 mmHg 84%
    03:00 +7°C° 0.4 mm 5 m/s 745 mmHg 87%
    04:00 +8°C° 0.4 mm 5 m/s 744 mmHg 90%
    05:00 +8°C° 0.3 mm 6 m/s 744 mmHg 89%
    06:00 +9°C° 0.3 mm 6 m/s 743 mmHg 88%
    07:00 +10°C° 0.3 mm 7 m/s 743 mmHg 86%
    08:00 +10°C° 0.1 mm 7 m/s 743 mmHg 83%
    09:00 +10°C° 0.1 mm 8 m/s 743 mmHg 81%
    10:00 +11°C° 0.1 mm 8 m/s 743 mmHg 78%
    11:00 +11°C° 0.1 mm 8 m/s 743 mmHg 78%
    12:00 +10°C° 0.1 mm 8 m/s 742 mmHg 78%
    13:00 +10°C° 0.1 mm 8 m/s 742 mmHg 78%
    14:00 +10°C° 0.1 mm 8 m/s 742 mmHg 78%
    15:00 +10°C° 0.1 mm 7 m/s 742 mmHg 79%
    16:00 +10°C° 0.1 mm 7 m/s 742 mmHg 79%
    17:00 +10°C° 0.2 mm 7 m/s 743 mmHg 79%
    18:00 +10°C° 0.2 mm 6 m/s 743 mmHg 80%
    19:00 +10°C° 0.2 mm 6 m/s 743 mmHg 80%
    20:00 +9°C° 0.1 mm 5 m/s 743 mmHg 81%
    21:00 +8°C° 0.1 mm 5 m/s 744 mmHg 82%
    22:00 +8°C° 0.1 mm 4 m/s 744 mmHg 83%
    23:00 +8°C° 0.1 mm 4 m/s 744 mmHg 85%

    Depois de amanhã, 26 Outubro, Sexta-feira

    Tempo Temperatura Precipitação Vento Pressão Humidade
    00:00 +7°C° 0.1 mm 4 m/s 744 mmHg 86%
    01:00 +7°C° 0.1 mm 4 m/s 743 mmHg 87%
    02:00 +7°C° 0 mm 4 m/s 743 mmHg 87%
    03:00 +8°C° 0 mm 3 m/s 743 mmHg 88%
    04:00 +8°C° 0 mm 3 m/s 743 mmHg 88%
    05:00 +8°C° 0.1 mm 3 m/s 742 mmHg 89%
    06:00 +8°C° 0.1 mm 3 m/s 742 mmHg 91%
    07:00 +9°C° 0.1 mm 3 m/s 742 mmHg 92%
    08:00 +9°C° 0 mm 3 m/s 742 mmHg 88%
    09:00 +10°C° 0 mm 4 m/s 741 mmHg 84%
    10:00 +11°C° 0 mm 4 m/s 741 mmHg 80%
    11:00 +12°C° 0 mm 5 m/s 741 mmHg 76%
    12:00 +13°C° 0 mm 5 m/s 740 mmHg 72%
    13:00 +13°C° 0 mm 5 m/s 740 mmHg 68%
    14:00 +13°C° 0.1 mm 5 m/s 739 mmHg 69%
    15:00 +12°C° 0.1 mm 5 m/s 739 mmHg 70%
    16:00 +12°C° 0.1 mm 5 m/s 738 mmHg 71%
    17:00 +10°C° 0 mm 5 m/s 738 mmHg 71%
    18:00 +9°C° 0 mm 6 m/s 738 mmHg 71%
    19:00 +9°C° 0 mm 6 m/s 738 mmHg 72%
    20:00 +9°C° 0 mm 6 m/s 738 mmHg 72%
    21:00 +8°C° 0 mm 6 m/s 738 mmHg 73%
    22:00 +8°C° 0 mm 6 m/s 738 mmHg 74%
    23:00 +7°C° 0 mm 6 m/s 738 mmHg 72%

    27 Outubro, Sábado

    Tempo Temperatura Precipitação Vento Pressão Humidade
    00:00 +6°C° 0 mm 7 m/s 739 mmHg 71%
    01:00 +5°C° 0 mm 7 m/s 739 mmHg 69%
    02:00 +4°C° 0 mm 7 m/s 739 mmHg 70%
    03:00 +4°C° 0 mm 6 m/s 740 mmHg 72%
    04:00 +4°C° 0 mm 6 m/s 740 mmHg 74%
    05:00 +3°C° 0 mm 6 m/s 740 mmHg 75%
    06:00 +3°C° 0 mm 5 m/s 741 mmHg 76%
    07:00 +3°C° 0 mm 5 m/s 741 mmHg 77%
    08:00 +3°C° 0 mm 5 m/s 741 mmHg 74%
    09:00 +5°C° 0 mm 5 m/s 742 mmHg 71%
    10:00 +6°C° 0 mm 5 m/s 742 mmHg 68%
    11:00 +7°C° 0 mm 4 m/s 742 mmHg 65%
    12:00 +7°C° 0 mm 4 m/s 742 mmHg 62%
    13:00 +8°C° 0 mm 4 m/s 742 mmHg 59%
    14:00 +8°C° 0 mm 3 m/s 742 mmHg 60%
    15:00 +8°C° 0 mm 2 m/s 742 mmHg 62%
    16:00 +8°C° 0 mm 2 m/s 742 mmHg 64%
    17:00 +8°C° 0 mm 1 m/s 743 mmHg 67%
    18:00 +7°C° 0 mm 1 m/s 743 mmHg 69%
    19:00 +7°C° 0 mm 1 m/s 743 mmHg 72%
    20:00 +7°C° 0 mm 1 m/s 744 mmHg 72%
    21:00 +7°C° 0 mm 1 m/s 744 mmHg 73%
    22:00 +6°C° 0 mm 1 m/s 744 mmHg 73%
    23:00 +6°C° 0 mm 1 m/s 744 mmHg 73%

    28 Outubro, Domingo

    Tempo Temperatura Precipitação Vento Pressão Humidade
    00:00 +6°C° 0 mm 1 m/s 744 mmHg 74%
    01:00 +5°C° 0 mm 0 m/s 744 mmHg 74%
    02:00 +5°C° 0 mm 0 m/s 744 mmHg 74%
    03:00 +5°C° 0 mm 0 m/s 744 mmHg 75%
    04:00 +5°C° 0 mm 0 m/s 744 mmHg 75%
    05:00 +5°C° 0 mm 0 m/s 744 mmHg 75%
    06:00 +6°C° 0 mm 1 m/s 745 mmHg 76%
    07:00 +5°C° 0 mm 1 m/s 745 mmHg 77%
    08:00 +5°C° 0.1 mm 2 m/s 745 mmHg 76%
    09:00 +6°C° 0.1 mm 2 m/s 745 mmHg 74%
    10:00 +6°C° 0.1 mm 2 m/s 745 mmHg 73%
    11:00 +5°C° 0.4 mm 3 m/s 745 mmHg 73%
    12:00 +5°C° 0.4 mm 4 m/s 745 mmHg 73%
    13:00 +5°C° 0.4 mm 4 m/s 745 mmHg 73%
    14:00 +5°C° 0.4 mm 4 m/s 745 mmHg 75%
    15:00 +5°C° 0.4 mm 4 m/s 745 mmHg 76%
    16:00 +3°C° 0.4 mm 5 m/s 745 mmHg 78%
    17:00 +3°C° 0.3 mm 5 m/s 745 mmHg 80%
    18:00 +3°C° 0.3 mm 5 m/s 745 mmHg 82%
    19:00 +2°C° 0.3 mm 5 m/s 745 mmHg 83%
    20:00 +2°C° 0.3 mm 5 m/s 745 mmHg 83%
    21:00 +2°C° 0.3 mm 5 m/s 745 mmHg 83%
    22:00 +2°C° 0.3 mm 6 m/s 745 mmHg 83%
    23:00 +2°C° 0.2 mm 6 m/s 745 mmHg 83%

    29 Outubro, Segunda-feira

    Tempo Temperatura Precipitação Vento Pressão Humidade
    00:00 +2°C° 0.2 mm 5 m/s 745 mmHg 84%
    01:00 +2°C° 0.2 mm 5 m/s 745 mmHg 84%
    02:00 +2°C° 0.4 mm 5 m/s 745 mmHg 84%
    03:00 +2°C° 0.4 mm 6 m/s 744 mmHg 85%
    04:00 +2°C° 0.4 mm 6 m/s 744 mmHg 86%
    05:00 +1°C° 0.5 mm 6 m/s 744 mmHg 86%
    06:00 +1°C° 0.5 mm 6 m/s 744 mmHg 86%
    07:00 +1°C° 0.5 mm 6 m/s 744 mmHg 87%
    08:00 +2°C° 0.5 mm 6 m/s 744 mmHg 86%
    09:00 +2°C° 0.5 mm 6 m/s 744 mmHg 86%
    10:00 +2°C° 0.5 mm 6 m/s 744 mmHg 86%
    11:00 +2°C° 0.4 mm 6 m/s 744 mmHg 85%
    12:00 +2°C° 0.4 mm 6 m/s 744 mmHg 85%
    13:00 +2°C° 0.4 mm 6 m/s 744 mmHg 85%
    14:00 +2°C° 0.3 mm 6 m/s 744 mmHg 85%
    15:00 +2°C° 0.3 mm 6 m/s 744 mmHg 85%
    16:00 +2°C° 0.3 mm 6 m/s 744 mmHg 85%
    17:00 +2°C° 0 mm 6 m/s 744 mmHg 85%
    18:00 +2°C° 0 mm 6 m/s 744 mmHg 85%
    19:00 +2°C° 0 mm 6 m/s 745 mmHg 85%
    20:00 +2°C° 0 mm 6 m/s 745 mmHg 85%
    21:00 +1°C° 0 mm 6 m/s 745 mmHg 86%
    22:00 +1°C° 0 mm 6 m/s 745 mmHg 86%
    23:00 +1°C° 0.1 mm 6 m/s 745 mmHg 86%

    30 Outubro, Terça-feira

    Tempo Temperatura Precipitação Vento Pressão Humidade
    00:00 0°C° 0.1 mm 7 m/s 745 mmHg 86%
    01:00 0°C° 0.1 mm 7 m/s 745 mmHg 86%
    02:00 0°C° 0.1 mm 7 m/s 744 mmHg 86%
    03:00 0°C° 0.1 mm 7 m/s 744 mmHg 86%
    04:00 0°C° 0.1 mm 7 m/s 743 mmHg 86%
    05:00 0°C° 0.1 mm 7 m/s 743 mmHg 86%
    06:00 0°C° 0.1 mm 8 m/s 743 mmHg 86%
    07:00 0°C° 0.1 mm 8 m/s 743 mmHg 86%
    08:00 0°C° 0.1 mm 8 m/s 742 mmHg 86%
    09:00 +1°C° 0.1 mm 8 m/s 742 mmHg 86%
    10:00 +1°C° 0.1 mm 8 m/s 742 mmHg 85%
    11:00 +1°C° 0.1 mm 8 m/s 742 mmHg 85%
    12:00 +1°C° 0.1 mm 8 m/s 742 mmHg 85%
    13:00 +2°C° 0.1 mm 8 m/s 741 mmHg 85%
    14:00 +2°C° 0 mm 8 m/s 741 mmHg 85%
    15:00 +2°C° 0 mm 8 m/s 741 mmHg 86%
    16:00 +2°C° 0 mm 8 m/s 740 mmHg 86%
    17:00 +2°C° 0.1 mm 8 m/s 740 mmHg 87%
    18:00 +2°C° 0.1 mm 8 m/s 740 mmHg 87%
    19:00 +2°C° 0.1 mm 8 m/s 739 mmHg 87%
    20:00 +3°C° 1 mm 7 m/s 739 mmHg 88%
    21:00 +3°C° 1 mm 7 m/s 738 mmHg 88%
    22:00 +3°C° 1 mm 7 m/s 738 mmHg 89%
    23:00 +3°C° 2.7 mm 6 m/s 737 mmHg 90%
    Mostrar mais